FENGYUN 1C DEB, 31554

Orbit data source: Space-Track

FENGYUN 1C DEB, 31554 is space debris in SSO originally from a launch on Mon, 10 May 1999 UTC launched from the Taiyaun Space Center, China (TSC). Fengyun 1C debris stems from the Chinese weather satellite Fengyun-1C, which was intentionally destroyed by a Chinese anti-satellite missile in 2007. This event dramatically increased the amount of space debris, with thousands of trackable fragments posing hazards to satellites and human spaceflight. The Fengyun 1C debris cloud has become a focal point in discussions about space sustainability and the need for international regulations to prevent the creation of new debris.

Loading next visibility...
Identifier
31554, 1999-025BYV
Orbit
SSO
Country
Flag of CNCN / PRC
Related business
Manufacturer
Unknown
Mission
Spacecraft
Bus & Motor
Unknown
Mass
Unknown
Launch date (UTC)
1999-05-10 (27 years ago)
Launch vehicle
Unknown
Launch site
Taiyaun Space Center, China (TSC)
Object type
Payload
Rocket body
Debris
Shape & HBR
Unknown shape, 0.1 m
Radar Cross Section
Medium (>0.1 m² and <1 m²)

Expand to show TLE details & history
Last TLE update: 1 day ago

TLE from 1 day ago
0 FENGYUN 1C DEB
1 31554U 99025BYV 26207.22784629  .00009480  00000-0  20947-2 0  9995
2 31554  98.9133   0.9319 0035272  60.3398 300.1303 14.57119687681355
Epoch: 2026-07-26T05:28Z
TLE epoch observation values (Epoch: 2026-07-26T05:28:05.919Z)
Latitude
-0.00002°
Longitude
-25.02155°
Altitude
692.975 km
Speed
7.516 km/s
True Right ascension
00h 03m 43s
True Declination
0° 00' 00"
Sunlit
Object was in full shadow at epoch
Visualization orbit readout
Latitude
Unknown
Longitude
Unknown
Altitude
Unknown
Speed
Unknown
Apparent Right ascension
Unknown
Apparent Declination
Unknown
Sunlit
N/A
Visualization observer readout
Local Sidereal Time
20:06:28
Azimuth
Unknown
Elevation
Unknown
Doppler factor
Unknown
Orbital elements
Apogee altitude
724.573 km
Perigee altitude
674.644 km
Semi-major axis
7,077.746 km
Eccentricity
0.00353
Inclination
98.9133°
RAAN
0.9319°
Arg. of periapsis
60.3398°
True anomaly
299.77995°
Mean anomaly
300.1303°
Eccentric anomaly
299.9552°
Mean motion
3.64503 °/min
Orbital period
98.76 mins
BSTAR
0.0020947
Loading maneuver chart data...
Computing Atmospheric mass density...

Documentation

Showing up to 5 results
|